Content
SEND FEEDBACK

Daily
Averages
Monthly
Summary
Canada

SASKATOON, SASKATCHEWAN


Home > North America > Canada > Saskatchewan
Elevation: 1653 feet     Latitude: 52 10N     Longitude: 106 41W

WEATHER
 
SELECT A DAY
Number of Records: 187,588;   Date Range: 1/1/95 - 9/17/14
 
SHARE

PRINT THIS DATA

[ ← Previous Day ]
WEATHER ALMANAC - JULY 8, 2013
[ Next Day → ]
[ °C ]   °F
We're sorry. There is no daily almanac available for Saskatoon, Saskatchewan on July 8, 2013.
WEATHER BY HOUR - JULY 8, 2013
[ °C ]   °F
Local TimeTemperatureDewpointHumidityBarometerVisibilityWind DirectionWind SpeedGust SpeedPrecipitationEventsConditions
1:00 AM53.6 °F51.8 °F94 %29.97 in15.0 miWest (270°)6.9 mphPartly Cloudy
2:00 AM51.8 °F50.0 °F94 %29.99 in15.0 miWest (280°)6.9 mphPartly Cloudy
3:00 AM51.8 °F50.0 °F94 %30.00 in15.0 miNW (320°)4.6 mphPartly Cloudy
4:00 AM50.0 °F50.0 °F100 %30.01 in15.0 miNW (320°)4.6 mphPartly Cloudy
5:00 AM48.2 °F48.2 °F100 %30.02 in15.0 miCalmFogShallow Fog
6:00 AM50.0 °F50.0 °F100 %30.04 in15.0 miVariable2.3 mphFogShallow Fog
7:00 AM53.6 °F53.6 °F100 %30.04 in15.0 miWest (270°)3.5 mphMostly Cloudy
8:00 AM57.2 °F53.6 °F88 %30.05 in15.0 miNW (320°)3.5 mphPartly Cloudy
9:00 AM60.8 °F53.6 °F77 %30.06 in15.0 miNNW (340°)5.8 mphScattered Clouds
10:00 AM62.6 °F51.8 °F68 %30.06 in15.0 miNorth (350°)4.6 mphPartly Cloudy
11:00 AM66.2 °F50.0 °F56 %30.06 in15.0 miNorth (360°)5.8 mphScattered Clouds
12:00 PM66.2 °F50.0 °F56 %30.06 in15.0 miNW (310°)4.6 mphScattered Clouds
1:00 PM68.0 °F50.0 °F52 %30.07 in15.0 miVariable2.3 mphMostly Cloudy
2:00 PM69.8 °F50.0 °F49 %30.05 in15.0 miNNW (340°)4.6 mphMostly Cloudy
3:00 PM69.8 °F51.8 °F53 %30.05 in15.0 miNorth (350°)6.9 mphOvercast
4:00 PM69.8 °F51.8 °F53 %30.05 in15.0 miNorth (360°)5.8 mphOvercast
5:00 PM69.8 °F50.0 °F49 %30.05 in15.0 miNorth (350°)4.6 mphOvercast
6:00 PM69.8 °F51.8 °F53 %30.04 in15.0 miNorth (350°)2.3 mphOvercast
7:00 PM66.2 °F55.4 °F68 %30.04 in15.0 miENE (60°)8.1 mphOvercast
8:00 PM64.4 °F53.6 °F68 %30.05 in15.0 miNE (50°)8.1 mphOvercast
9:00 PM62.6 °F55.4 °F77 %30.05 in15.0 miENE (70°)3.5 mphOvercast
10:00 PM60.8 °F53.6 °F77 %30.04 in15.0 miENE (60°)5.8 mphOvercast
11:00 PM59.0 °F53.6 °F82 %30.05 in15.0 miEast (100°)4.6 mphOvercast
Hourly data recorded from CYXE, located miles away from Saskatoon, Saskatchewan







STORIES FROM OUR PARTNERS